This is the latest recevied weather packets stored in our database for station/object NA9VY-8. If no packets are shown the sender has not sent any weather packets the latest 10 day(s).
| Time | Temp. | Humidity | Pressure | Rain* | Wind** | Luminosity | Snow |
|---|---|---|---|---|---|---|---|
| 1777829518 | 15.56° C | 45% | 1022.7 hPa | 0 mm | - | 119 W/m² | - |
| 1777829215 | 15.56° C | 46% | 1022.7 hPa | 0 mm | - | 242 W/m² | - |
| 1777828913 | 15° C | 42% | 1022.7 hPa | 0 mm | - | 286 W/m² | - |
| 1777828609 | 16.11° C | 42% | 1023.1 hPa | 0 mm | - | 105 W/m² | - |
| 1777828307 | 15° C | 39% | 1023.3 hPa | 0 mm | - | 524 W/m² | - |
| 1777828003 | 15.56° C | 40% | 1023.5 hPa | 0 mm | - | 116 W/m² | - |
| 1777827700 | 15.56° C | 43% | 1023.3 hPa | 0 mm | - | 99 W/m² | - |
| 1777827397 | 15.56° C | 43% | 1023.5 hPa | 0 mm | - | 383 W/m² | - |
| 1777827093 | 15° C | 45% | 1023.8 hPa | 0 mm | - | 372 W/m² | - |
| 1777826790 | 15° C | 46% | 1024 hPa | 0 mm | - | 667 W/m² | - |
| 1777826487 | 14.44° C | 44% | 1024.1 hPa | 0 mm | - | 581 W/m² | - |
| 1777826184 | 15° C | 44% | 1024.2 hPa | 0 mm | - | 662 W/m² | - |
| 1777825882 | 15.56° C | 40% | 1024.2 hPa | 0 mm | - | 132 W/m² | - |
| 1777825578 | 15° C | 42% | 1024.3 hPa | 0 mm | - | 106 W/m² | - |
| 1777825277 | 14.44° C | 43% | 1024.5 hPa | 0 mm | - | 480 W/m² | - |
| 1777824973 | 14.44° C | 42% | 1024.6 hPa | 0 mm | - | 763 W/m² | - |
| 1777824669 | 14.44° C | 42% | 1024.6 hPa | 0 mm | - | 739 W/m² | - |
| 1777824366 | 15° C | 44% | 1025 hPa | 0 mm | - | 820 W/m² | - |
| 1777824061 | 15° C | 42% | 1025.2 hPa | 0 mm | - | 765 W/m² | - |
| 1777823758 | 14.44° C | 43% | 1025.2 hPa | 0 mm | - | 729 W/m² | - |
| 1777823455 | 15° C | 46% | 1025.4 hPa | 0 mm | - | 803 W/m² | - |
| 1777823153 | 14.44° C | 43% | 1025.3 hPa | 0 mm | - | 810 W/m² | - |
| 1777822850 | 15° C | 43% | 1025.5 hPa | 0 mm | - | 588 W/m² | - |
| 1777822548 | 15° C | 49% | 1025.6 hPa | 0 mm | - | 1051 W/m² | - |
| 1777822245 | 14.44° C | 48% | 1025.7 hPa | 0 mm | - | 860 W/m² | - |
* Rain latest hour (hover to see other rain measurements)
** Current wind speed in m/s (hover to see current wind gust speed)